(218025) = 2001 YC59 = 2005 UD344

Discovered at Socorro on 2001-12-18 by LINEAR.

Orbit

Orbit type: Main Belt

Note: WebGL enabled browser required.

epoch2024-03-31.0
epoch JD2460400.5
perihelion date2025-07-13.49932
perihelion JD2460869.99932
argument of perihelion (°)243.73895
ascending node (°)304.50561
inclination (°)3.88670
eccentricity0.0905503
perihelion distance (AU)2.4744759
Tisserand w.r.t. Jupiter3.3
ΔV w.r.t. Earth (km/sec)9.9
semimajor axis (AU)2.7208498
mean anomaly (°)256.89447
mean daily motion (°/day)0.21960740
aphelion distance (AU)2.967
period (years)4.49
P-vector [x]-0.98796530
P-vector [y]-0.10631379
P-vector [z]-0.11234742
Q-vector [x]0.14423726
Q-vector [y]-0.89554098
Q-vector [z]-0.42095365
absolute magnitude16.26
phase slope0.15
uncertainty0
referenceMPEC 2024-C163
observations used436
oppositions16
arc length (days)8505
first opposition used2000
last opposition used2024
residual rms (arc-secs)0.72
perturbers coarse indicatorM-v
perturbers precise indicator003Ek
first observation date used2000-09-21.0
last observation date used2024-01-04.0
computer nameMPCLINUX
JD of orbit computation2456966.737971
perihelion JD uncertainty (days)7.1891E-05
argument of perihelion uncertainty (°)5.7345E-05
ascending node uncertainty (°)5.5254E-05
inclination uncertainty (°)3.2250E-06
eccentricity uncertainty 3.9812E-08
perihelion distance uncertainty (AU)1.0170E-07
Minimum Orbit Intersection Distances (in AU)
for orbit epoch: 2460200.5, reference: E2024-CG3
Mercury2.05855
Venus1.76236
Earth1.47915
Mars0.83886
Jupiter2.0081
Saturn6.26549
Uranus15.9505
Neptune26.8943

Observations

446 total observations over interval: 2000 09 21.24362 – 2024 01 04.359877
These data are available for download (format description).

Date (UT) J2000 RA J2000 Dec Magn Location Ref
2000 09 21.24362 23 46 34.12 +03 41 22.6 19.8 R 695 – Kitt Peak MPS 150663
2000 09 21.30936 23 46 30.72 +03 41 03.8   695 – Kitt Peak MPS 150663
2001 12 18.33273 05 41 29.83 +27 12 06.5 19.6   704 – Lincoln Laboratory ETS, New Mexico MPS 45492
2001 12 18.34797 05 41 28.80 +27 12 05.3 19.3   704 – Lincoln Laboratory ETS, New Mexico MPS 45492
2001 12 18.36320 05 41 27.85 +27 12 03.9 19.7   704 – Lincoln Laboratory ETS, New Mexico MPS 45492
2001 12 19.31874 05 40 27.72 +27 10 36.6 19.8   704 – Lincoln Laboratory ETS, New Mexico MPS 45492
2001 12 19.34913 05 40 25.75 +27 10 34.0 19.8   704 – Lincoln Laboratory ETS, New Mexico MPS 45492
2001 12 19.36477 05 40 24.69 +27 10 32.5 19.4   704 – Lincoln Laboratory ETS, New Mexico MPS 45492
2002 01 14.15436 05 17 16.55 +26 14 14.6 19.9   704 – Lincoln Laboratory ETS, New Mexico MPS 47098
2002 01 14.16959 05 17 15.95 +26 14 12.5 20.9   704 – Lincoln Laboratory ETS, New Mexico MPS 47098
2002 01 14.20005 05 17 14.75 +26 14 08.1 20.3   704 – Lincoln Laboratory ETS, New Mexico MPS 47098
2002 01 14.21526 05 17 14.15 +26 14 05.3 20.5   704 – Lincoln Laboratory ETS, New Mexico MPS 47098
2004 09 12.214347 20 49 56.292 -15 56 31.59 20.97 V 645 – Apache Point-Sloan Digital Sky Survey MPS 390305
2004 09 12.217819 20 49 56.205 -15 56 31.86 21.80   645 – Apache Point-Sloan Digital Sky Survey MPS 390305
2005 10 29.20592 02 33 20.78 +21 13 35.5 20.3 V 691 – Steward Observatory, Kitt Peak-Spacewatch MPS 151032
2005 10 29.22317 02 33 19.80 +21 13 31.5 20.3 V 691 – Steward Observatory, Kitt Peak-Spacewatch MPS 151032
2005 10 29.24049 02 33 18.83 +21 13 27.3 20.1 V 691 – Steward Observatory, Kitt Peak-Spacewatch MPS 151032
2005 11 04.387427 02 27 39.283 +20 47 01.50 20.35 V 645 – Apache Point-Sloan Digital Sky Survey MPS 390305
2005 11 04.390899 02 27 39.086 +20 47 00.55 21.10   645 – Apache Point-Sloan Digital Sky Survey MPS 390305
2005 11 05.15193 02 26 57.55 +20 43 32.5 20.5 V 691 – Steward Observatory, Kitt Peak-Spacewatch MPS 151032
2005 11 05.17698 02 26 56.14 +20 43 25.8 20.4 V 691 – Steward Observatory, Kitt Peak-Spacewatch MPS 151032
2005 11 05.20898 02 26 54.36 +20 43 17.2 20.3 V 691 – Steward Observatory, Kitt Peak-Spacewatch MPS 151032
2005 11 06.09291 02 26 05.96 +20 39 11.7 20.5 V 691 – Steward Observatory, Kitt Peak-Spacewatch MPS 150663
2005 11 06.11360 02 26 04.81 +20 39 06.6 20.5 V 691 – Steward Observatory, Kitt Peak-Spacewatch MPS 150663
2005 11 06.13084 02 26 03.84 +20 39 01.5 20.2 V 691 – Steward Observatory, Kitt Peak-Spacewatch MPS 150663
2006 11 16.43618 09 44 43.44 +13 51 06.8 21.3 V G96 – Mt. Lemmon Survey MPS 188465
2006 11 16.44433 09 44 43.87 +13 51 03.1 21.2 V G96 – Mt. Lemmon Survey MPS 188465
2006 11 16.45241 09 44 44.34 +13 51 00.6 21.1 V G96 – Mt. Lemmon Survey MPS 188465
2006 11 16.46051 09 44 44.73 +13 50 58.3 21.2 V G96 – Mt. Lemmon Survey MPS 188465
2006 12 13.51421 10 02 31.77 +11 44 23.4 20.6 V G96 – Mt. Lemmon Survey MPS 191927
2006 12 13.51869 10 02 31.81 +11 44 22.2 20.3 V G96 – Mt. Lemmon Survey MPS 191927
2006 12 13.52318 10 02 31.95 +11 44 21.4 20.6 V G96 – Mt. Lemmon Survey MPS 191927
2006 12 13.52766 10 02 32.02 +11 44 20.3 20.6 V G96 – Mt. Lemmon Survey MPS 191927
2007 01 10.46791 10 02 30.29 +10 57 37.6   691 – Steward Observatory, Kitt Peak-Spacewatch MPS 195455
2007 01 10.48539 10 02 29.88 +10 57 37.7   691 – Steward Observatory, Kitt Peak-Spacewatch MPS 195455
2007 01 10.50288 10 02 29.43 +10 57 37.3   691 – Steward Observatory, Kitt Peak-Spacewatch MPS 195455
2007 01 17.44970 09 59 11.36 +11 02 06.3 20.2 V G96 – Mt. Lemmon Survey MPS 196305
2007 01 17.45541 09 59 11.22 +11 02 06.7 19.8 V G96 – Mt. Lemmon Survey MPS 196305
2007 01 17.46095 09 59 10.96 +11 02 07.9 20.3 V G96 – Mt. Lemmon Survey MPS 196305
2007 01 17.46666 09 59 10.78 +11 02 07.0 20.3 V G96 – Mt. Lemmon Survey MPS 196305
2007 01 24.40061 09 54 41.43 +11 12 31.9 20.1 V 703 – Catalina Sky Survey MPS 196984
2007 01 24.40904 09 54 41.18 +11 12 32.4 19.8 V 703 – Catalina Sky Survey MPS 196984
2007 01 24.41738 09 54 40.78 +11 12 33.4 20.6 V 703 – Catalina Sky Survey MPS 196984
2007 01 24.42579 09 54 40.35 +11 12 34.5 19.7 V 703 – Catalina Sky Survey MPS 196984
2007 01 27.42447 09 52 24.83 +11 18 38.8 20.1 V 691 – Steward Observatory, Kitt Peak-Spacewatch MPS 198027
2007 01 27.44251 09 52 23.95 +11 18 41.1 20.2 V 691 – Steward Observatory, Kitt Peak-Spacewatch MPS 198027
2007 01 27.46055 09 52 23.09 +11 18 43.6 20.1 V 691 – Steward Observatory, Kitt Peak-Spacewatch MPS 198027
2007 02 07.18687 09 43 10.11 +11 46 10.7   691 – Steward Observatory, Kitt Peak-Spacewatch MPS 198642
2007 02 07.20455 09 43 09.10 +11 46 13.4   691 – Steward Observatory, Kitt Peak-Spacewatch MPS 198642
2007 02 07.22225 09 43 08.10 +11 46 16.7   691 – Steward Observatory, Kitt Peak-Spacewatch MPS 198642
2007 02 08.35446 09 42 05.23 +11 49 33.1 19.0 R 644 – Palomar Mountain/NEAT MPS 199426
2007 02 08.37477 09 42 04.07 +11 49 36.9 19.8 R 644 – Palomar Mountain/NEAT MPS 199426
2007 02 08.39516 09 42 02.88 +11 49 40.3 18.9 R 644 – Palomar Mountain/NEAT MPS 199426
2007 02 11.58043 09 39 04.87 +11 59 03.8 19.5 R D29 – Purple Mountain Observatory, XuYi Station MPS 205948
2007 02 11.60671 09 39 03.38 +11 59 08.7 18.7 R D29 – Purple Mountain Observatory, XuYi Station MPS 205948
2007 02 11.63223 09 39 01.83 +11 59 13.4 19.0 R D29 – Purple Mountain Observatory, XuYi Station MPS 205948
2007 02 13.27293 09 37 29.41 +12 04 08.5 19.2 C 704 – Lincoln Laboratory ETS, New Mexico MPS 291456
2007 02 13.28483 09 37 28.55 +12 04 10.8 19.2 C 704 – Lincoln Laboratory ETS, New Mexico MPS 291456
2007 02 13.29676 09 37 27.98 +12 04 12.8 19.4 C 704 – Lincoln Laboratory ETS, New Mexico MPS 291456
2007 02 13.30876 09 37 27.29 +12 04 14.4 19.3 C 704 – Lincoln Laboratory ETS, New Mexico MPS 291456
2007 02 13.31735 09 37 26.79 +12 04 16.9 19.5   704 – Lincoln Laboratory ETS, New Mexico MPS 199426
2007 02 13.32854 09 37 26.14 +12 04 18.6 20.0   704 – Lincoln Laboratory ETS, New Mexico MPS 199426
2007 02 13.33965 09 37 25.48 +12 04 20.9 19.4   704 – Lincoln Laboratory ETS, New Mexico MPS 199426
2007 02 13.35075 09 37 24.83 +12 04 23.5 19.3   704 – Lincoln Laboratory ETS, New Mexico MPS 199426
2007 02 16.30082 09 34 39.15 +12 13 15.9 19.1 R 644 – Palomar Mountain/NEAT MPS 200298
2007 02 16.32118 09 34 37.97 +12 13 19.2 19.1 R 644 – Palomar Mountain/NEAT MPS 200298
2007 02 16.34271 09 34 36.74 +12 13 23.4 19.5 R 644 – Palomar Mountain/NEAT MPS 200298
2007 02 17.35709 09 33 40.08 +12 16 26.1 19.5 R 644 – Palomar Mountain/NEAT MPS 200298
2007 02 17.37742 09 33 38.90 +12 16 29.4 19.5 R 644 – Palomar Mountain/NEAT MPS 200298
2007 02 17.39783 09 33 37.71 +12 16 33.3 18.4 R 644 – Palomar Mountain/NEAT MPS 200298
2007 02 18.59806 09 32 31.49 +12 20 07.6 19.5 R D29 – Purple Mountain Observatory, XuYi Station MPS 205948
2007 02 18.62414 09 32 30.00 +12 20 13.0 19.4 R D29 – Purple Mountain Observatory, XuYi Station MPS 205948
2007 02 18.65020 09 32 28.50 +12 20 17.4 18.9 R D29 – Purple Mountain Observatory, XuYi Station MPS 205948
2007 02 23.22365 09 28 21.98 +12 33 34.6 19.5 C 704 – Lincoln Laboratory ETS, New Mexico MPS 290130
2007 02 23.24666 09 28 20.85 +12 33 37.7 19.8 C 704 – Lincoln Laboratory ETS, New Mexico MPS 290130
2007 02 23.25809 09 28 20.18 +12 33 39.4 19.5 C 704 – Lincoln Laboratory ETS, New Mexico MPS 290130
2007 02 23.26956 09 28 19.62 +12 33 40.8 19.6 C 704 – Lincoln Laboratory ETS, New Mexico MPS 290130
2007 02 25.17770 09 26 41.28 +12 38 57.8 19.6 V G96 – Mt. Lemmon Survey MPS 201451
2007 02 25.19042 09 26 40.59 +12 38 59.7 19.6 V G96 – Mt. Lemmon Survey MPS 201451
2007 02 25.20189 09 26 39.98 +12 39 01.6 19.6 V G96 – Mt. Lemmon Survey MPS 201451
2007 02 25.20910 09 26 39.58 +12 39 03.1 19.6 V G96 – Mt. Lemmon Survey MPS 201451
2007 03 12.10857 09 16 09.93 +13 11 55.7 20.2 V 691 – Steward Observatory, Kitt Peak-Spacewatch MPS 202937
2007 03 12.13311 09 16 09.09 +13 11 58.3 19.9 V 691 – Steward Observatory, Kitt Peak-Spacewatch MPS 202937
2007 03 12.15765 09 16 08.46 +13 12 00.0 20.3 V 691 – Steward Observatory, Kitt Peak-Spacewatch MPS 202937
2007 03 14.24681 09 15 04.60 +13 15 06.7 20.0 V G96 – Mt. Lemmon Survey MPS 202937
